Location: Karwodrza
(49.9217°N, 21.0454°E)
Time: 13:55:47
(UTC+02:00)

Tiangong 2 - Pass Details

Date: 21 March 2019
Orbit: 378 x 390 km, 42.8° (Epoch: 24 April)

Event Time Altitude Azimuth Distance (km) Brightness Sun altitude
Exits shadow 03:35:51 13° 153° (SSE) 1,216 3.6 -19.8°
Drops below altitude 10° 03:36:31 10° 143° (SE) 1,401 4.0 -19.7°
Sets 03:38:57 0° 125° (SE) 2,256 5.4 -19.3°
